Location: Usti nad Labem
(50.6670°N, 14.0330°E)
Time: 23:51:23
(UTC+01:00)

ISS - Pass Details

Date: 04 October 2020
Orbit: 417 x 420 km, 51.6° (Epoch: 30 October)

Event Time Altitude Azimuth Distance (km) Brightness Sun altitude
Rises 20:20:00 0° 283° (WNW) 2,370 1.9 -17.4°
Reaches altitude 10° 20:22:28 10° 266° (W) 1,503 0.2 -17.8°
Maximum altitude 20:24:59 20° 218° (SW) 1,042 -1.5 -18.2°
Enters shadow 20:26:27 15° 184° (S) 1,214 -1.5 -18.4°
